H1 CPF 2 NER 2021 2 16 9 047 01 glonass138 H2 1805301 9138 43508 2021 2 16 0 0 0 2021 2 19 23 45 0 900 1 1 0 0 0 1 H9 10 0 59261 0.00000 0 -4246017.169 -10296244.351 -22936199.888 10 0 59261 900.00000 0 -1436337.124 -10731732.965 -23086058.353 10 0 59261 1800.00000 0 1324512.857 -11370608.730 -22787119.025 10 0 59261 2700.00000 0 3969286.664 -12192393.515 -22045288.622 10 0 59261 3600.00000 0 6435952.800 -13165346.722 -20875078.847 10 0 59261 4500.00000 0 8670026.255 -14247786.669 -19299317.435 10 0 59261 5400.00000 0 10626582.316 -15389847.482 -17348698.417 10 0 59261 6300.00000 0 12271869.749 -16535597.536 -15061180.531 10 0 59261 7200.00000 0 13584457.618 -17625430.232 -12481245.694 10 0 59261 8100.00000 0 14555869.625 -18598626.476 -9659031.975 10 0 59261 9000.00000 0 15190681.239 -19395981.095 -6649357.960 10 0 59261 9900.00000 0 15506077.229 -19962382.681 -3510657.546 10 0 59261 10800.00000 0 15530889.872 -20249238.370 -303845.885 10 0 59261 11700.00000 0 15304159.647 -20216641.519 2908861.494 10 0 59261 12600.00000 0 14873280.263 -19835191.179 6065153.331 10 0 59261 13500.00000 0 14291806.990 -19087386.749 9103827.772 10 0 59261 14400.00000 0 13617021.166 -17968538.973 11965974.683 10 0 59261 15300.00000 0 12907353.942 -16487158.866 14596112.455 10 0 59261 16200.00000 0 12219777.708 -14664807.668 16943257.610 10 0 59261 17100.00000 0 11607274.983 -12535413.438 18961907.084 10 0 59261 18000.00000 0 11116491.029 -10144082.159 20612914.710 10 0 59261 18900.00000 0 10785668.507 -7545451.700 21864245.614 10 0 59261 19800.00000 0 10642950.723 -4801655.943 22691594.569 10 0 59261 20700.00000 0 10705124.614 -1979982.473 23078856.802 10 0 59261 21600.00000 0 10976856.352 849680.374 23018442.491 10 0 59261 22500.00000 0 11450452.003 3617502.572 22511428.881 10 0 59261 23400.00000 0 12106153.944 6256368.475 21567546.798 10 0 59261 24300.00000 0 12912961.466 8704420.904 20205001.269 10 0 59261 25200.00000 0 13829942.157 10907388.569 18450128.860 10 0 59261 26100.00000 0 14807980.041 12820600.733 16336897.373 10 0 59261 27000.00000 0 15791887.967 14410605.764 13906256.526 10 0 59261 27900.00000 0 16722796.162 15656326.399 11205351.098 10 0 59261 28800.00000 0 17540716.733 16549703.518 8286611.029 10 0 59261 29700.00000 0 18187176.110 17095801.604 5206735.510 10 0 59261 30600.00000 0 18607803.930 17312371.640 2025590.508 10 0 59261 31500.00000 0 18754768.296 17228889.977 -1194958.617 10 0 59261 32400.00000 0 18588953.427 16885114.150 -4392256.277 10 0 59261 33300.00000 0 18081786.375 16329217.141 -7504083.321 10 0 59261 34200.00000 0 17216634.190 15615579.689 -10469876.304 10 0 59261 35100.00000 0 15989711.163 14802334.894 -13231914.598 10 0 59261 36000.00000 0 14410456.539 13948769.932 -15736451.331 10 0 59261 36900.00000 0 12501365.716 13112695.718 -17934765.189 10 0 59261 37800.00000 0 10297281.147 12347896.576 -19784112.135 10 0 59261 38700.00000 0 7844172.016 11701768.308 -21248558.228 10 0 59261 39600.00000 0 5197453.459 11213244.787 -22299677.329 10 0 59261 40500.00000 0 2419915.272 10911100.686 -22917100.426 10 0 59261 41400.00000 0 -420653.667 10812701.701 -23088906.409 10 0 59261 42300.00000 0 -3254046.414 10923254.557 -22811847.273 10 0 59261 43200.00000 0 -6010317.328 11235587.795 -22091404.035 10 0 59261 44100.00000 0 -8622448.831 11730471.928 -20941672.891 10 0 59261 45000.00000 0 -11028895.245 12377464.785 -19385084.316 10 0 59261 45900.00000 0 -13175898.865 13136245.844 -17451961.000 10 0 59261 46800.00000 0 -15019482.993 13958382.857 -15179923.392 10 0 59261 47700.00000 0 -16527040.181 14789455.913 -12613154.660 10 0 59261 48600.00000 0 -17678450.930 15571449.205 -9801539.366 10 0 59261 49500.00000 0 -18466687.732 16245309.477 -6799692.628 10 0 59261 50400.00000 0 -18897880.711 16753563.241 -3665898.732 10 0 59261 51300.00000 0 -18990843.727 17042882.342 -460979.838 10 0 59261 52200.00000 0 -18776082.268 17066489.687 2752883.240 10 0 59261 53100.00000 0 -18294326.071 16786303.741 5913355.150 10 0 59261 54000.00000 0 -17594649.202 16174731.324 8959151.716 10 0 59261 54900.00000 0 -16732257.400 15216033.111 11831223.959 10 0 59261 55800.00000 0 -15766036.164 13907204.027 14473897.638 10 0 59261 56700.00000 0 -14755962.894 12258331.077 16835946.599 10 0 59261 57600.00000 0 -13760491.876 10292412.958 18871579.726 10 0 59261 58500.00000 0 -12834021.613 8044648.022 20541322.908 10 0 59261 59400.00000 0 -12024550.469 5561219.210 21812779.656 10 0 59261 60300.00000 0 -11371618.516 2897625.205 22661256.309 10 0 59261 61200.00000 0 -10904621.481 116625.806 23070240.180 10 0 59261 62100.00000 0 -10641567.223 -2714114.670 23031721.778 10 0 59261 63000.00000 0 -10588326.793 -5524589.701 22546354.877 10 0 59261 63900.00000 0 -10738411.661 -8245113.624 21623451.098 10 0 59261 64800.00000 0 -11073286.844 -10808976.303 20280808.551 10 0 59261 65700.00000 0 -11563207.425 -13154980.247 18544377.015 10 0 59261 66600.00000 0 -12168544.063 -15229755.465 16447765.161 10 0 59261 67500.00000 0 -12841542.470 -16989756.299 14031598.276 10 0 59261 68400.00000 0 -13528443.488 -18402857.252 11342737.859 10 0 59261 69300.00000 0 -14171874.768 -19449481.197 8433377.411 10 0 59261 70200.00000 0 -14713413.291 -20123212.735 5360031.343 10 0 59261 71100.00000 0 -15096210.216 -20430870.914 2182436.315 10 0 59261 72000.00000 0 -15267566.445 -20392038.232 -1037613.418 10 0 59261 72900.00000 0 -15181349.011 -20038065.930 -4237473.615 10 0 59261 73800.00000 0 -14800144.773 -19410597.837 -7354876.386 10 0 59261 74700.00000 0 -14097058.932 -18559675.606 -10329150.319 10 0 59261 75600.00000 0 -13057080.823 -17541506.101 -13102409.711 10 0 59261 76500.00000 0 -11677957.863 -16415986.068 -15620688.750 10 0 59261 77400.00000 0 -9970539.484 -15244089.544 -17834997.680 10 0 59261 78300.00000 0 -7958575.471 -14085229.103 -19702279.871 10 0 59261 79200.00000 0 -5677976.203 -12994702.951 -21186250.869 10 0 59261 80100.00000 0 -3175565.225 -12021335.888 -22258103.080 10 0 59261 81000.00000 0 -507375.802 -11205413.657 -22897062.684 10 0 59261 81900.00000 0 2263437.791 -10576997.397 -23090788.428 10 0 59261 82800.00000 0 5068987.367 -10154688.631 -22835605.135 10 0 59261 83700.00000 0 7839237.262 -9944895.950 -22136568.016 10 0 59261 84600.00000 0 10504682.887 -9941633.310 -21007357.156 10 0 59261 85500.00000 0 12999010.419 -10126857.393 -19470004.717 10 0 59262 0.00000 0 15261627.736 -10471328.810 -17554460.604 10 0 59262 900.00000 0 17239962.043 -10935960.011 -15298004.997 10 0 59262 1800.00000 0 18891429.915 -11473592.120 -12744520.071 10 0 59262 2700.00000 0 20184997.797 -12031125.428 -9943634.203 10 0 59262 3600.00000 0 21102270.573 -12551912.957 -6949756.021 10 0 59262 4500.00000 0 21638062.859 -12978315.875 -3821016.893 10 0 59262 5400.00000 0 21800431.066 -13254312.644 -618142.490 10 0 59262 6300.00000 0 21610166.141 -13328051.628 2596724.667 10 0 59262 7200.00000 0 21099769.484 -13154239.348 5761228.674 10 0 59262 8100.00000 0 20311956.018 -12696263.516 8814006.414 10 0 59262 9000.00000 0 19297748.148 -11927961.175 11695873.175 10 0 59262 9900.00000 0 18114241.084 -10834957.182 14350964.837 10 0 59262 10800.00000 0 16822133.696 -9415516.299 16727814.927 10 0 59262 11700.00000 0 15483128.506 -7680872.398 18780346.200 10 0 59262 12600.00000 0 14157309.628 -5655020.146 20468758.091 10 0 59262 13500.00000 0 12900608.104 -3373976.701 21760293.574 10 0 59262 14400.00000 0 11762460.183 -884542.770 22629871.211 10 0 59262 15300.00000 0 10783756.020 1757386.825 23060570.664 10 0 59262 16200.00000 0 9995164.096 4488894.473 23043962.639 10 0 59262 17100.00000 0 9415901.041 7242408.646 22580276.946 10 0 59262 18000.00000 0 9052998.137 9948273.442 21678405.158 10 0 59262 18900.00000 0 8901095.195 12537413.627 20355737.302 10 0 59262 19800.00000 0 8942770.622 14943985.665 18637834.922 10 0 59262 20700.00000 0 9149394.187 17107905.382 16557945.857 10 0 59262 21600.00000 0 9482467.080 18977147.683 14156369.036 10 0 59262 22500.00000 0 9895393.278 20509722.733 11479680.549 10 0 59262 23400.00000 0 10335607.885 21675246.032 8579835.154 10 0 59262 24300.00000 0 10746972.685 22456036.554 5513160.015 10 0 59262 25200.00000 0 11072337.485 22847696.653 2339259.908 10 0 59262 26100.00000 0 11256158.356 22859149.103 -880144.672 10 0 59262 27000.00000 0 11247061.094 22512129.619 -4082423.493 10 0 59262 27900.00000 0 11000240.170 21840156.272 -7205262.506 10 0 59262 28800.00000 0 10479590.276 20887019.496 -10187884.797 10 0 59262 29700.00000 0 9659478.751 19704856.901 -12972241.850 10 0 59262 30600.00000 0 8526082.441 18351894.718 -15504150.957 10 0 59262 31500.00000 0 7078231.147 16889951.954 -17734355.728 10 0 59262 32400.00000 0 5327720.781 15381813.186 -19619488.511 10 0 59262 33300.00000 0 3299081.957 13888581.339 -21122915.701 10 0 59262 34200.00000 0 1028812.879 12467122.332 -22215449.398 10 0 59262 35100.00000 0 -1435892.041 11167709.213 -22875911.909 10 0 59262 36000.00000 0 -4038865.199 10031964.576 -23091542.538 10 0 59262 36900.00000 0 -6717068.879 9091187.223 -22858239.331 10 0 59262 37800.00000 0 -9402991.055 8365132.414 -22180631.752 10 0 59262 38700.00000 0 -12027234.556 7861295.843 -21071983.447 10 0 59262 39600.00000 0 -14521192.117 7574730.137 -19553927.522 10 0 59262 40500.00000 0 -16819696.537 7488400.237 -17656039.873 10 0 59262 41400.00000 0 -18863536.284 7574061.352 -15415259.115 10 0 59262 42300.00000 0 -20601732.418 7793621.368 -12875164.590 10 0 59262 43200.00000 0 -21993482.883 8100929.189 -10085126.550 10 0 59262 44100.00000 0 -23009694.007 8443912.770 -7099345.073 10 0 59262 45000.00000 0 -23634036.241 8766975.934 -3975796.486 10 0 59262 45900.00000 0 -23863481.188 9013552.285 -775107.789 10 0 59262 46800.00000 0 -23708298.542 9128708.017 2440619.011 10 0 59262 47700.00000 0 -23191514.050 9061683.444 5609009.708 10 0 59262 48600.00000 0 -22347852.371 8768265.821 8668624.558 10 0 59262 49500.00000 0 -21222209.747 8212893.093 11560145.473 10 0 59262 50400.00000 0 -19867721.069 7370399.648 14227520.843 10 0 59262 51300.00000 0 -18343502.841 6227330.215 16619046.243 10 0 59262 52200.00000 0 -16712166.506 4782766.040 18688360.595 10 0 59262 53100.00000 0 -15037206.157 3048627.952 20395339.035 10 0 59262 54000.00000 0 -13380369.392 1049442.491 21706865.932 10 0 59262 54900.00000 0 -11799120.609 -1178420.455 22597473.743 10 0 59262 55800.00000 0 -10344302.051 -3588008.211 23049835.836 10 0 59262 56700.00000 0 -9058089.550 -6123493.250 23055104.153 10 0 59262 57600.00000 0 -7972327.653 -8722259.243 22613085.213 10 0 59262 58500.00000 0 -7107313.166 -11317280.113 21732250.860 10 0 59262 59400.00000 0 -6471077.589 -13839694.847 20429583.004 10 0 59262 60300.00000 0 -6059198.247 -16221472.363 18730254.552 10 0 59262 61200.00000 0 -5855146.076 -18398056.543 16667151.742 10 0 59262 62100.00000 0 -5831155.532 -20310881.989 14280246.035 10 0 59262 63000.00000 0 -5949580.216 -21909655.936 11615826.672 10 0 59262 63900.00000 0 -6164677.288 -23154310.913 8725607.923 10 0 59262 64800.00000 0 -6424745.336 -24016546.223 5665727.713 10 0 59262 65700.00000 0 -6674525.189 -24480893.207 2495656.700 10 0 59262 66600.00000 0 -6857761.620 -24545259.000 -722960.813 10 0 59262 67500.00000 0 -6919816.690 -24220925.558 -3927511.235 10 0 59262 68400.00000 0 -6810222.971 -23532003.677 -7055637.170 10 0 59262 69300.00000 0 -6485067.205 -22514364.936 -10046459.178 10 0 59262 70200.00000 0 -5909102.006 -21214096.777 -12841769.022 10 0 59262 71100.00000 0 -5057494.756 -19685546.206 -15387170.252 10 0 59262 72000.00000 0 -3917138.315 -17989035.114 -17633142.956 10 0 59262 72900.00000 0 -2487466.890 -16188344.048 -19536011.431 10 0 59262 73800.00000 0 -780741.442 -14348070.846 -21058795.617 10 0 59262 74700.00000 0 1178208.299 -12530975.670 -22171929.649 10 0 59262 75600.00000 0 3352775.237 -10795424.063 -22853833.846 10 0 59262 76500.00000 0 5695867.229 -9193035.182 -23091329.449 10 0 59262 77400.00000 0 8151646.710 -7766633.380 -22879888.608 10 0 59262 78300.00000 0 10657645.416 -6548588.116 -22223715.417 10 0 59262 79200.00000 0 13147166.368 -5559610.602 -21135656.984 10 0 59262 80100.00000 0 15551873.261 -4808056.276 -19636946.795 10 0 59262 81000.00000 0 17804459.790 -4289760.771 -17756785.776 10 0 59262 81900.00000 0 19841288.132 -3988414.638 -15531769.419 10 0 59262 82800.00000 0 21604887.066 -3876459.539 -13005172.348 10 0 59262 83700.00000 0 23046206.157 -3916466.726 -10226104.303 10 0 59262 84600.00000 0 24126532.660 -4062938.464 -7248553.988 10 0 59262 85500.00000 0 24818991.744 -4264455.410 -4130339.487 10 0 59263 0.00000 0 25109568.241 -4466078.540 -931985.736 10 0 59263 900.00000 0 24997607.717 -4611903.311 2284449.522 10 0 59263 1800.00000 0 24495777.576 -4647658.552 5456577.368 10 0 59263 2700.00000 0 23629489.210 -4523238.682 8522884.949 10 0 59263 3600.00000 0 22435807.482 -4195063.585 11423924.085 10 0 59263 4500.00000 0 20961892.783 -3628165.380 14103458.663 10 0 59263 5400.00000 0 19263041.430 -2797914.285 16509548.920 10 0 59263 6300.00000 0 17400406.370 -1691310.353 18595552.148 10 0 59263 7200.00000 0 15438493.473 -307786.268 20321020.982 10 0 59263 8100.00000 0 13442537.314 1340513.400 21652482.587 10 0 59263 9000.00000 0 11475865.357 3228989.370 22564084.309 10 0 59263 9900.00000 0 9597359.755 5321371.864 23038093.819 10 0 59263 10800.00000 0 7859121.664 7571000.780 23065244.473 10 0 59263 11700.00000 0 6304434.605 9922550.239 22644919.274 10 0 59263 12600.00000 0 4966111.023 12314127.377 21785169.697 10 0 59263 13500.00000 0 3865290.397 14679659.732 20502568.484 10 0 59263 14400.00000 0 3010738.573 16951473.326 18821898.485 10 0 59263 15300.00000 0 2398677.375 19062955.179 16775682.577 10 0 59263 16200.00000 0 2013151.429 20951190.095 14403562.698 10 0 59263 17100.00000 0 1826916.708 22559462.098 11751538.936 10 0 59263 18000.00000 0 1802813.408 23839515.925 8871082.559 10 0 59263 18900.00000 0 1895565.135 24753483.610 5818139.559 10 0 59263 19800.00000 0 2053928.185 25275394.840 2652043.661 10 0 59263 20700.00000 0 2223099.572 25392206.910 -565639.916 10 0 59263 21600.00000 0 2347281.147 25104310.317 -3772317.120 10 0 59263 22500.00000 0 2372290.211 24425488.082 -6905590.044 10 0 59263 23400.00000 0 2248104.811 23382330.089 -9904479.399 10 0 59263 24300.00000 0 1931234.549 22013126.968 -12710619.721 10 0 59263 25200.00000 0 1386815.060 20366290.107 -15269403.043 10 0 59263 26100.00000 0 590336.154 18498364.662 -17531047.898 10 0 59263 27000.00000 0 -471070.738 16471719.512 -19451572.216 10 0 59263 27900.00000 0 -1797841.344 14352011.710 -20993650.898 10 0 59263 28800.00000 0 -3377717.885 12205532.283 -22127341.265 10 0 59263 29700.00000 0 -5186030.755 10096544.901 -22830662.513 10 0 59263 30600.00000 0 -7186511.434 8084728.789 -23090018.390 10 0 59263 31500.00000 0 -9332603.012 6222832.633 -22900455.365 10 0 59263 32400.00000 0 -11569213.959 4554636.815 -22265751.981 10 0 59263 33300.00000 0 -13834842.154 3113308.126 -21198338.195 10 0 59263 34200.00000 0 -16063980.739 1920214.449 -19719046.826 10 0 59263 35100.00000 0 -18189705.700 984247.345 -17856702.357 10 0 59263 36000.00000 0 -20146337.500 301679.190 -15647555.323 10 0 59263 36900.00000 0 -21872065.960 -143440.955 -13134573.510 10 0 59263 37800.00000 0 -23311429.216 -378371.092 -10366603.834 10 0 59263 38700.00000 0 -24417543.634 -440279.827 -7397421.209 10 0 59263 39600.00000 0 -25153991.910 -374429.863 -4284683.006 10 0 59263 40500.00000 0 -25496290.961 -232019.208 -1088809.475 10 0 59263 41400.00000 0 -25432878.682 -67772.075 2128188.115 10 0 59263 42300.00000 0 -24965578.914 62618.108 5303908.708 10 0 59263 43200.00000 0 -24109525.649 105085.211 8376768.794 10 0 59263 44100.00000 0 -22892550.139 9716.446 11287192.518 10 0 59263 45000.00000 0 -21354056.826 -266898.794 13978761.595 10 0 59263 45900.00000 0 -19543435.268 -759596.597 16399303.139 10 0 59263 46800.00000 0 -17518074.511 -1492930.246 18501894.852 10 0 59263 47700.00000 0 -15341062.456 -2479898.234 20245768.663 10 0 59263 48600.00000 0 -13078665.785 -3721162.622 21597096.014 10 0 59263 49500.00000 0 -10797694.695 -5204791.451 22529640.286 10 0 59263 50400.00000 0 -8562861.361 -6906537.123 23025264.245 10 0 59263 51300.00000 0 -6434241.117 -8790640.554 23074283.092 10 0 59263 52200.00000 0 -4464940.973 -10811129.178 22675656.414 10 0 59263 53100.00000 0 -2699071.668 -12913556.274 21837015.097 10 0 59263 54000.00000 0 -1170106.806 -15037110.828 20574522.224 10 0 59263 54900.00000 0 100303.214 -17117011.504 18912569.817 10 0 59263 55800.00000 0 1103013.405 -19087086.097 16883316.366 10 0 59263 56700.00000 0 1841534.450 -20882429.768 14526073.003 10 0 59263 57600.00000 0 2331644.969 -22442031.505 11886549.135 10 0 59263 58500.00000 0 2600482.244 -23711258.995 9015971.276 10 0 59263 59400.00000 0 2685149.941 -24644097.519 5970091.531 10 0 59263 60300.00000 0 2630901.839 -25205048.329 2808104.562 10 0 59263 61200.00000 0 2488978.778 -25370605.896 -408505.776 10 0 59263 62100.00000 0 2314190.969 -25130250.965 -3617167.368 10 0 59263 63000.00000 0 2162349.002 -24486916.736 -6755444.313 10 0 59263 63900.00000 0 2087653.417 -23456907.740 -9762260.100 10 0 59263 64800.00000 0 2140154.746 -22069274.291 -12579094.721 10 0 59263 65700.00000 0 2363392.944 -20364668.537 -15151131.423 10 0 59263 66600.00000 0 2792317.445 -18393730.212 -17428329.863 10 0 59263 67500.00000 0 3451577.078 -16215070.097 -19366404.171 10 0 59263 68400.00000 0 4354253.200 -13892936.097 -20927686.558 10 0 59263 69300.00000 0 5501090.425 -11494660.160 -22081859.559 10 0 59263 70200.00000 0 6880258.098 -9087993.129 -22806542.908 10 0 59263 71100.00000 0 8467653.187 -6738438.985 -23087724.077 10 0 59263 72000.00000 0 10227732.280 -4506699.700 -22920024.647 10 0 59263 72900.00000 0 12114838.169 -2446336.747 -22306797.949 10 0 59263 73800.00000 0 14074965.726 -601745.955 -21260056.710 10 0 59263 74700.00000 0 16047893.349 993470.946 -19800232.593 10 0 59263 75600.00000 0 17969591.049 2317671.665 -17955772.741 10 0 59263 76500.00000 0 19774804.672 3361828.605 -15762581.424 10 0 59263 77400.00000 0 21399708.366 4129648.458 -13263317.873 10 0 59263 78300.00000 0 22784514.586 4637153.019 -10506564.034 10 0 59263 79200.00000 0 23875932.729 4911740.690 -7545878.485 10 0 59263 80100.00000 0 24629373.693 4990769.741 -4438754.999 10 0 59263 81000.00000 0 25010808.388 4919724.419 -1245506.055 10 0 59263 81900.00000 0 24998202.697 4750042.460 1971906.993 10 0 59263 82800.00000 0 24582469.116 4536696.489 5151074.255 10 0 59263 83700.00000 0 23767895.459 4335632.052 8230344.846 10 0 59263 84600.00000 0 22572032.994 4201170.844 11150018.353 10 0 59263 85500.00000 0 21025048.716 4183488.898 13853497.195 10 0 59264 0.00000 0 19168568.927 4326276.234 16288377.889 10 0 59264 900.00000 0 17054062.005 4664677.089 18407460.896 10 0 59264 1800.00000 0 14740828.142 5223596.408 20169659.320 10 0 59264 2700.00000 0 12293678.452 6016446.167 21540790.470 10 0 59264 3600.00000 0 9780399.771 7044382.564 22494235.006 10 0 59264 4500.00000 0 7269109.561 8296068.353 23011451.653 10 0 59264 5400.00000 0 4825609.828 9747970.731 23082337.944 10 0 59264 6300.00000 0 2510848.882 11365183.886 22705430.100 10 0 59264 7200.00000 0 378595.443 13102743.267 21887938.033 10 0 59264 8100.00000 0 -1526579.202 14907378.271 20645614.311 10 0 59264 9000.00000 0 -3170927.882 16719631.697 19002458.839 10 0 59264 9900.00000 0 -4532695.870 18476258.703 16990264.025 10 0 59264 10800.00000 0 -5602782.610 20112806.034 14648008.146 10 0 59264 11700.00000 0 -6384869.585 21566264.258 12021107.590 10 0 59264 12600.00000 0 -6895009.176 22777682.095 9160541.561 10 0 59264 13500.00000 0 -7160692.114 23694632.962 6121865.548 10 0 59264 14400.00000 0 -7219433.130 24273429.593 2964132.307 10 0 59264 15300.00000 0 -7116934.900 24480992.657 -251258.583 10 0 59264 16200.00000 0 -6904908.513 24296293.694 -3461759.877 10 0 59264 17100.00000 0 -6638643.517 23711310.449 -6604900.566 10 0 59264 18000.00000 0 -6374431.420 22731453.300 -9619509.699 10 0 59264 18900.00000 0 -6166952.933 21375443.904 -12446915.337 10 0 59264 19800.00000 0 -6066740.885 19674650.502 -15032094.331 10 0 59264 20700.00000 0 -6117827.422 17671907.444 -17324749.590 10 0 59264 21600.00000 0 -6355676.215 15419868.381 -19280293.282 10 0 59264 22500.00000 0 -6805488.082 12978962.184 -20860716.476 10 0 59264 23400.00000 0 -7480952.391 10415037.458 -22035328.168 10 0 59264 24300.00000 0 -8383497.523 7796794.268 -22781349.564 10 0 59264 25200.00000 0 -9502072.424 5193110.419 -23084352.464 10 0 59264 26100.00000 0 -10813468.710 2670373.740 -22938533.769 10 0 59264 27000.00000 0 -12283169.965 289931.194 -22346821.414 10 0 59264 27900.00000 0 -13866692.729 -1894239.694 -21320810.256 10 0 59264 28800.00000 0 -15511362.933 -3837540.989 -19880529.706 10 0 59264 29700.00000 0 -17158453.411 -5506363.709 -18054048.037 10 0 59264 30600.00000 0 -18745592.972 -6879230.879 -15876921.333 10 0 59264 31500.00000 0 -20209346.115 -7947428.267 -13391498.025 10 0 59264 32400.00000 0 -21487855.396 -8715098.370 -10646092.629 10 0 59264 33300.00000 0 -22523435.798 -9198795.606 -7694044.773 10 0 59264 34200.00000 0 -23265012.404 -9426523.170 -4592681.944 10 0 59264 35100.00000 0 -23670299.319 -9436293.700 -1402206.134 10 0 59264 36000.00000 0 -23707628.562 -9274275.756 1815473.949 10 0 59264 36900.00000 0 -23357352.293 -8992605.280 4997942.256 10 0 59264 37800.00000 0 -22612759.858 -8646955.318 8083483.175 10 0 59264 38700.00000 0 -21480471.120 -8293966.925 11012274.308 10 0 59264 39600.00000 0 -19980289.438 -7988649.918 13727541.217 10 0 59264 40500.00000 0 -18144520.477 -7781863.315 16176652.193 10 0 59264 41400.00000 0 -16016784.816 -7717981.598 18312132.300 10 0 59264 42300.00000 0 -13650373.501 -7832845.007 20092577.616 10 0 59264 43200.00000 0 -11106214.280 -8152080.171 21483452.678 10 0 59264 44100.00000 0 -8450532.246 -8689861.776 22457756.384 10 0 59264 45000.00000 0 -5752301.116 -9448167.711 22996543.982 10 0 59264 45900.00000 0 -3080589.854 -10416559.595 23089295.497 10 0 59264 46800.00000 0 -501913.544 -11572498.874 22734123.606 10 0 59264 47700.00000 0 1922302.606 -12882186.430 21937816.745 10 0 59264 48600.00000 0 4138041.937 -14301891.949 20715716.198 10 0 59264 49500.00000 0 6100702.282 -15779718.805 19091428.731 10 0 59264 50400.00000 0 7776706.376 -17257731.901 17096379.411 10 0 59264 51300.00000 0 9144650.222 -18674360.415 14769212.175 10 0 59264 52200.00000 0 10195941.890 -19966975.554 12155048.662 10 0 59264 53100.00000 0 10934904.243 -21074535.446 9304618.794 10 0 59264 54000.00000 0 11378337.607 -21940186.056 6273279.255 10 0 59264 54900.00000 0 11554561.042 -22513708.205 3119938.514 10 0 59264 55800.00000 0 11501972.996 -22753706.859 -94090.641 10 0 59264 56700.00000 0 11267192.618 -22629449.284 -3306288.448 10 0 59264 57600.00000 0 10902861.032 -22122273.369 -6454151.433 10 0 59264 58500.00000 0 10465196.471 -21226505.392 -9476416.846 10 0 59264 59400.00000 0 10011407.814 -19949847.387 -12314263.414 10 0 59264 60300.00000 0 9597077.169 -18313216.751 -14912464.101 10 0 59264 61200.00000 0 9273623.421 -16350044.090 -17220467.463 10 0 59264 62100.00000 0 9085955.113 -14105058.297 -19193385.912 10 0 59264 63000.00000 0 9070412.806 -11632609.515 -20792871.330 10 0 59264 63900.00000 0 9253088.501 -8994600.203 -21987860.815 10 0 59264 64800.00000 0 9648593.542 -6258110.767 -22755178.306 10 0 59264 65700.00000 0 10259327.151 -3492818.834 -23079980.787 10 0 59264 66600.00000 0 11075276.513 -768319.761 -22956040.919 10 0 59264 67500.00000 0 12074356.725 1848540.404 -22385861.257 10 0 59264 68400.00000 0 13223276.188 4296209.011 -21380618.420 10 0 59264 69300.00000 0 14478890.903 6520742.871 -19959938.816 10 0 59264 70200.00000 0 15789990.597 8477801.003 -18151510.750 10 0 59264 71100.00000 0 17099441.562 10134232.486 -15990540.673 10 0 59264 72000.00000 0 18346596.083 11469194.722 -13519064.433 10 0 59264 72900.00000 0 19469867.224 12474757.234 -10785126.986 10 0 59264 73800.00000 0 20409360.794 13155967.595 -7841846.568 10 0 59264 74700.00000 0 21109453.915 13530378.493 -4746381.657 10 0 59264 75600.00000 0 21521211.860 13627057.566 -1558820.828 10 0 59264 76500.00000 0 21604541.634 13485123.138 1658982.895 10 0 59264 77400.00000 0 21329991.822 13151868.769 4844610.403 10 0 59264 78300.00000 0 20680123.118 12680556.667 7936284.365 10 0 59264 79200.00000 0 19650391.864 12127973.588 10874063.234 10 0 59264 80100.00000 0 18249509.439 11551852.727 13600998.371 10 0 59264 81000.00000 0 16499261.936 11008270.247 16064232.190 10 0 59264 81900.00000 0 14433797.185 10549126.190 18216016.569 10 0 59264 82800.00000 0 12098408.459 10219815.682 20014632.354 10 0 59264 83700.00000 0 9547864.456 10057188.065 21425192.857 10 0 59264 84600.00000 0 6844354.060 10087879.641 22420316.451 10 0 59264 85500.00000 0 4055130.211 10327090.020 22980655.809 99